2023/09/04 00:00:00, 1.0,20.2
2023/09/04 00:10:00, 1.0,20.4
2023/09/04 00:20:00, 0.9,20.4
2023/09/04 00:30:00, 0.9,20.6
2023/09/04 00:40:00, 0.9,20.7
2023/09/04 00:50:00, 0.8,20.7
2023/09/04 01:00:00, 0.9,20.5
2023/09/04 01:10:00, 1.3,20.4
2023/09/04 01:20:00, 0.0,20.7
2023/09/04 01:30:00, 0.0,20.6
2023/09/04 01:40:00, 0.0,20.7
2023/09/04 01:50:00, 0.0,21.0
2023/09/04 02:00:00, 0.0,20.4
2023/09/04 02:10:00, 0.0,20.4
2023/09/04 02:20:00, 0.0,19.9
2023/09/04 02:30:00, 0.0,19.6
2023/09/04 02:40:00, 0.0,19.4
2023/09/04 02:50:00, 0.0,19.2
2023/09/04 03:00:00, 0.0,19.2
2023/09/04 03:10:00, 0.0,19.0
2023/09/04 03:20:00, 0.0,19.0
2023/09/04 03:30:00, 0.0,18.9
2023/09/04 03:40:00, 0.0,18.8
2023/09/04 03:50:00, 0.0,18.7
2023/09/04 04:00:00, 0.0,18.7
2023/09/04 04:10:00, 0.0,18.5
2023/09/04 04:20:00, 0.0,18.7
2023/09/04 04:30:00, 0.0,18.4
2023/09/04 04:40:00, 0.0,18.5
2023/09/04 04:50:00, 0.0,18.2
2023/09/04 05:00:00, 0.0,18.3
2023/09/04 05:10:00, 0.0,18.0
2023/09/04 05:20:00, 0.0,18.1
2023/09/04 05:30:00, 0.0,18.0
2023/09/04 05:40:00, 0.0,18.0
2023/09/04 05:50:00, 0.0,18.0
2023/09/04 06:00:00, 0.0,18.0
2023/09/04 06:10:00, 0.0,17.9
2023/09/04 06:20:00, 0.0,18.4
2023/09/04 06:30:00, 0.0,18.3
2023/09/04 06:40:00, 0.0,18.4
2023/09/04 06:50:00, 0.0,18.5
2023/09/04 07:00:00, 0.0,18.9
2023/09/04 07:10:00, 0.0,19.7
2023/09/04 07:20:00, 0.0,20.1
2023/09/04 07:30:00, 0.0,21.2
2023/09/04 07:40:00, 0.0,22.7
2023/09/04 07:50:00, 0.0,23.7
2023/09/04 08:00:00, 0.0,25.5
2023/09/04 08:10:00, 0.0,26.7
2023/09/04 08:20:00, 0.0,27.1
2023/09/04 08:30:00, 0.0,27.1
2023/09/04 08:40:00, 0.0,27.2
2023/09/04 08:50:00,---,27.6
2023/09/04 09:00:00, 0.0,26.4
2023/09/04 09:10:00, 0.0,27.2
2023/09/04 09:20:00, 0.0,26.4
2023/09/04 09:30:00, 0.0,26.6
2023/09/04 09:40:00, 0.0,26.9
2023/09/04 09:50:00, 0.0,26.7
2023/09/04 10:00:00, 0.0,28.3
2023/09/04 10:10:00, 0.0,28.2
2023/09/04 10:20:00, 0.0,26.3
2023/09/04 10:30:00, 0.0,27.0
2023/09/04 10:40:00, 0.0,27.4
2023/09/04 10:50:00, 0.0,28.1
2023/09/04 11:00:00, 0.0,29.2
2023/09/04 11:10:00, 0.0,29.0
2023/09/04 11:20:00, 0.0,29.2
2023/09/04 11:30:00, 0.0,28.8
2023/09/04 11:40:00, 0.0,29.1
2023/09/04 11:50:00, 0.0,29.2
2023/09/04 12:00:00, 0.0,28.4
2023/09/04 12:10:00, 0.0,28.8
2023/09/04 12:20:00, 0.0,28.3
2023/09/04 12:30:00, 0.0,27.6
2023/09/04 12:40:00,---,29.4
2023/09/04 12:50:00, 0.0,29.9
2023/09/04 13:00:00, 0.0,29.7
2023/09/04 13:10:00, 0.0,30.1
2023/09/04 13:20:00, 0.0,30.6
2023/09/04 13:30:00, 0.0,29.2
2023/09/04 13:40:00, 0.0,31.4
2023/09/04 13:50:00,---,30.3
2023/09/04 14:00:00, 0.0,30.2
2023/09/04 14:10:00, 0.0,28.7
2023/09/04 14:20:00, 0.0,28.6
2023/09/04 14:30:00, 0.0,28.3
2023/09/04 14:40:00, 0.0,27.9
2023/09/04 14:50:00, 0.0,31.5
2023/09/04 15:00:00, 0.0,34.8
2023/09/04 15:10:00, 0.0,32.9
2023/09/04 15:20:00, 0.0,34.0
2023/09/04 15:30:00, 0.0,30.2
2023/09/04 15:40:00, 0.0,29.1
2023/09/04 15:50:00, 0.0,30.8
2023/09/04 16:00:00, 0.0,27.9
2023/09/04 16:10:00, 0.0,27.5
2023/09/04 16:20:00, 0.0,27.9
2023/09/04 16:30:00, 0.0,27.6
2023/09/04 16:40:00, 0.0,27.1
2023/09/04 16:50:00, 0.0,26.1
2023/09/04 17:00:00, 0.0,26.1
2023/09/04 17:10:00, 0.0,26.2
2023/09/04 17:20:00, 0.0,25.6
2023/09/04 17:30:00, 0.6,25.5
2023/09/04 17:40:00, 0.4,25.7
2023/09/04 17:50:00, 0.4,24.7
2023/09/04 18:00:00, 0.6,24.4
2023/09/04 18:10:00, 0.7,23.5
2023/09/04 18:20:00, 0.7,23.5
2023/09/04 18:30:00, 0.8,22.6
2023/09/04 18:40:00, 1.0,22.7
2023/09/04 18:50:00, 1.1,22.6
2023/09/04 19:00:00, 1.0,22.6
2023/09/04 19:10:00, 0.9,22.6
2023/09/04 19:20:00, 0.8,22.8
2023/09/04 19:30:00, 0.7,22.3
2023/09/04 19:40:00, 0.7,22.3
2023/09/04 19:50:00, 0.8,21.5
2023/09/04 20:00:00, 0.6,22.0
2023/09/04 20:10:00, 0.6,22.0
2023/09/04 20:20:00, 0.6,21.5
2023/09/04 20:30:00, 0.7,21.9
2023/09/04 20:40:00, 0.8,21.5
2023/09/04 20:50:00, 1.0,21.5
2023/09/04 21:00:00, 1.1,21.6
2023/09/04 21:10:00, 1.1,21.2
2023/09/04 21:20:00, 1.1,21.5
2023/09/04 21:30:00, 1.1,21.2
2023/09/04 21:40:00, 1.1,21.9
2023/09/04 21:50:00, 1.1,21.5
2023/09/04 22:00:00, 1.1,21.8
2023/09/04 22:10:00, 1.1,21.6
2023/09/04 22:20:00, 1.0,21.9
2023/09/04 22:30:00, 1.0,21.5
2023/09/04 22:40:00, 1.1,21.2
2023/09/04 22:50:00, 1.2,21.3
2023/09/04 23:00:00, 1.2,21.3
2023/09/04 23:10:00, 1.3,21.6
2023/09/04 23:20:00, 1.5,21.5
2023/09/04 23:30:00,---,21.3
2023/09/04 23:40:00, 1.4,21.5
2023/09/04 23:50:00, 0.0,21.6
